Location: El Bakhil
(32.7726°N, 5.5387°W)
Time: 04:09:17
(UTC+00:00)

Cosmos 1844 Rocket - Pass Details

Date: 03 March 2021
Orbit: 826 x 843 km, 71.0° (Epoch: 12 April)

Event Time Altitude Azimuth Distance (km) Brightness Sun altitude
Rises 20:08:25 0° 339° (NNW) 3,366 6.2 -23.3°
Reaches altitude 10° 20:10:51 10° 340° (NNW) 2,430 5.4 -23.8°
Maximum altitude 20:16:26 88° 71° (ENE) 831 2.5 -25.0°
Enters shadow 20:17:47 54° 157° (SSE) 998 2.8 -25.3°
